Location: La Comballaz
(46.3780°N, 7.0817°E)
Time: 17:30:52
(UTC+00:00)

Cosmos 2058 - Pass Details

Date: 09 April 2020
Orbit: 563 x 583 km, 82.5° (Epoch: 02 June)

Event Time Altitude Azimuth Distance (km) Brightness Sun altitude
Rises 19:14:13 0° 4° (N) 2,775 6.7 -11.0°
Reaches altitude 10° 19:16:54 10° 22° (NNE) 1,875 5.6 -11.5°
Maximum altitude 19:19:58 20° 70° (ENE) 1,350 4.4 -11.9°
Enters shadow 19:21:23 17° 96° (E) 1,476 4.4 -12.2°
